Time,TemperatureF,DewpointF,PressureIn,WindDirection,WindDirectionDegrees,WindSpeedMPH,WindSpeedGustMPH,Humidity,HourlyPrecipIn,Conditions,Clouds,dailyrainin,SoftwareType,DateUTC
2013-03-25 00:02:00,44.1,11.0,27.29,NNW,337,0.0,2.6,23,0.00,,,0.00,Rainwise IP-100,2013-03-25 07:02:00,
2013-03-25 00:07:00,43.5,11.0,27.29,NNW,337,0.0,0.0,23,0.00,,,0.00,Rainwise IP-100,2013-03-25 07:07:00,
2013-03-25 00:12:00,43.3,8.0,27.29,NNW,337,0.0,0.0,23,0.00,,,0.00,Rainwise IP-100,2013-03-25 07:12:00,
2013-03-25 00:17:00,43.5,11.0,27.30,NNW,337,0.0,0.0,24,0.00,,,0.00,Rainwise IP-100,2013-03-25 07:17:00,
2013-03-25 00:22:00,43.4,11.0,27.29,NNW,337,0.0,1.2,24,0.00,,,0.00,Rainwise IP-100,2013-03-25 07:22:00,
2013-03-25 00:27:00,42.9,11.0,27.30,NNW,337,0.0,1.6,24,0.00,,,0.00,Rainwise IP-100,2013-03-25 07:27:00,
2013-03-25 00:32:00,42.5,11.0,27.30,NNW,337,0.0,0.0,24,0.00,,,0.00,Rainwise IP-100,2013-03-25 07:32:00,
2013-03-25 00:37:00,42.3,11.0,27.30,NNW,337,0.0,0.0,25,0.00,,,0.00,Rainwise IP-100,2013-03-25 07:37:00,
2013-03-25 00:42:00,42.0,11.0,27.30,NNW,337,0.0,2.1,25,0.00,,,0.00,Rainwise IP-100,2013-03-25 07:42:00,
2013-03-25 00:47:00,42.1,11.0,27.30,NNW,337,0.0,0.0,25,0.00,,,0.00,Rainwise IP-100,2013-03-25 07:47:00,
2013-03-25 00:52:00,42.6,11.0,27.30,NNW,337,0.0,1.6,25,0.00,,,0.00,Rainwise IP-100,2013-03-25 07:52:00,
2013-03-25 00:57:00,42.3,11.0,27.29,NNW,337,0.0,1.2,25,0.00,,,0.00,Rainwise IP-100,2013-03-25 07:57:00,
2013-03-25 01:02:00,41.9,11.0,27.29,NNW,337,0.0,1.4,25,0.00,,,0.00,Rainwise IP-100,2013-03-25 08:02:00,
2013-03-25 01:07:00,41.6,11.0,27.30,NNW,337,1.2,2.3,26,0.00,,,0.00,Rainwise IP-100,2013-03-25 08:07:00,
2013-03-25 01:12:00,41.5,11.0,27.29,NNW,337,0.0,1.6,26,0.00,,,0.00,Rainwise IP-100,2013-03-25 08:12:00,
2013-03-25 01:17:00,41.8,11.0,27.30,NNW,337,1.2,0.0,26,0.00,,,0.00,Rainwise IP-100,2013-03-25 08:17:00,
2013-03-25 01:22:00,41.9,11.0,27.29,NNW,337,0.0,1.6,26,0.00,,,0.00,Rainwise IP-100,2013-03-25 08:22:00,
2013-03-25 01:27:00,42.3,11.0,27.29,NNW,337,0.0,0.0,25,0.00,,,0.00,Rainwise IP-100,2013-03-25 08:27:00,
2013-03-25 01:32:00,42.7,11.0,27.29,NNW,337,0.0,1.9,25,0.00,,,0.00,Rainwise IP-100,2013-03-25 08:32:00,
2013-03-25 01:37:00,42.8,11.0,27.29,NNW,337,0.0,0.0,25,0.00,,,0.00,Rainwise IP-100,2013-03-25 08:37:00,
2013-03-25 01:42:00,42.6,11.0,27.29,NNW,337,0.0,0.0,25,0.00,,,0.00,Rainwise IP-100,2013-03-25 08:42:00,
2013-03-25 01:47:00,42.1,11.0,27.29,NNW,337,0.0,0.0,25,0.00,,,0.00,Rainwise IP-100,2013-03-25 08:47:00,
2013-03-25 01:52:00,41.7,11.0,27.29,NNW,337,0.0,0.0,25,0.00,,,0.00,Rainwise IP-100,2013-03-25 08:52:00,
2013-03-25 01:57:00,41.3,11.0,27.29,NNW,337,0.0,1.2,26,0.00,,,0.00,Rainwise IP-100,2013-03-25 08:57:00,
2013-03-25 02:02:00,41.0,11.0,27.29,NNW,337,0.0,0.0,27,0.00,,,0.00,Rainwise IP-100,2013-03-25 09:02:00,
2013-03-25 02:07:00,40.5,11.0,27.29,NNW,337,0.0,0.0,27,0.00,,,0.00,Rainwise IP-100,2013-03-25 09:07:00,
2013-03-25 02:12:00,40.1,11.0,27.28,NNW,337,0.0,0.0,28,0.00,,,0.00,Rainwise IP-100,2013-03-25 09:12:00,
2013-03-25 02:17:00,39.7,11.0,27.28,NNW,337,0.0,0.0,28,0.00,,,0.00,Rainwise IP-100,2013-03-25 09:17:00,
2013-03-25 02:22:00,39.2,11.0,27.29,NNW,337,0.0,0.0,28,0.00,,,0.00,Rainwise IP-100,2013-03-25 09:22:00,
2013-03-25 02:27:00,38.7,11.0,27.28,NNW,337,0.0,0.0,29,0.00,,,0.00,Rainwise IP-100,2013-03-25 09:27:00,
2013-03-25 02:32:00,38.2,11.0,27.28,NNW,337,0.0,0.0,29,0.00,,,0.00,Rainwise IP-100,2013-03-25 09:32:00,
2013-03-25 02:37:00,37.9,11.0,27.28,NNW,337,0.0,0.0,30,0.00,,,0.00,Rainwise IP-100,2013-03-25 09:37:00,
2013-03-25 02:42:00,37.8,11.0,27.29,NNW,337,0.0,0.0,31,0.00,,,0.00,Rainwise IP-100,2013-03-25 09:42:00,
2013-03-25 02:47:00,37.7,11.0,27.28,NNW,337,0.0,0.0,31,0.00,,,0.00,Rainwise IP-100,2013-03-25 09:47:00,
2013-03-25 02:52:00,37.5,11.0,27.28,NNW,337,0.0,0.0,31,0.00,,,0.00,Rainwise IP-100,2013-03-25 09:52:00,
2013-03-25 02:57:00,37.3,11.0,27.28,NNW,337,0.0,0.0,31,0.00,,,0.00,Rainwise IP-100,2013-03-25 09:57:00,
2013-03-25 03:02:00,37.2,11.0,27.28,NNW,337,0.0,0.0,32,0.00,,,0.00,Rainwise IP-100,2013-03-25 10:02:00,
2013-03-25 03:07:00,37.1,11.0,27.28,NNW,337,0.0,0.0,32,0.00,,,0.00,Rainwise IP-100,2013-03-25 10:07:00,
2013-03-25 03:12:00,36.7,11.0,27.28,NNW,337,0.0,0.0,32,0.00,,,0.00,Rainwise IP-100,2013-03-25 10:12:00,
2013-03-25 03:17:00,36.4,11.0,27.28,NNW,337,0.0,0.0,33,0.00,,,0.00,Rainwise IP-100,2013-03-25 10:17:00,
2013-03-25 03:22:00,36.4,11.0,27.28,NNW,337,0.0,0.0,33,0.00,,,0.00,Rainwise IP-100,2013-03-25 10:22:00,
2013-03-25 03:27:00,36.5,11.0,27.28,NNW,337,0.0,0.0,33,0.00,,,0.00,Rainwise IP-100,2013-03-25 10:27:00,
2013-03-25 03:32:00,36.5,11.0,27.28,NNW,337,0.0,0.0,33,0.00,,,0.00,Rainwise IP-100,2013-03-25 10:32:00,
2013-03-25 03:37:00,36.1,11.0,27.28,NNW,337,0.0,0.0,33,0.00,,,0.00,Rainwise IP-100,2013-03-25 10:37:00,
2013-03-25 03:42:00,35.6,11.0,27.28,NNW,337,0.0,1.2,34,0.00,,,0.00,Rainwise IP-100,2013-03-25 10:42:00,
2013-03-25 03:47:00,35.6,11.0,27.29,NNW,337,0.0,0.0,35,0.00,,,0.00,Rainwise IP-100,2013-03-25 10:47:00,
2013-03-25 03:52:00,36.0,11.0,27.29,NNW,337,0.0,0.0,35,0.00,,,0.00,Rainwise IP-100,2013-03-25 10:52:00,
2013-03-25 03:57:00,35.9,11.0,27.29,NNW,337,0.0,0.0,35,0.00,,,0.00,Rainwise IP-100,2013-03-25 10:57:00,
2013-03-25 04:02:00,35.7,11.0,27.29,NNW,337,0.0,0.0,35,0.00,,,0.00,Rainwise IP-100,2013-03-25 11:02:00,
2013-03-25 04:07:00,36.0,11.0,27.29,NNW,337,0.0,0.0,35,0.00,,,0.00,Rainwise IP-100,2013-03-25 11:07:00,
2013-03-25 04:12:00,36.4,11.0,27.29,NNW,337,0.0,0.0,34,0.00,,,0.00,Rainwise IP-100,2013-03-25 11:12:00,
2013-03-25 04:17:00,36.0,11.0,27.29,NNW,337,0.0,0.0,34,0.00,,,0.00,Rainwise IP-100,2013-03-25 11:17:00,
2013-03-25 04:22:00,35.5,11.0,27.29,NNW,337,0.0,0.0,35,0.00,,,0.00,Rainwise IP-100,2013-03-25 11:22:00,
2013-03-25 04:27:00,35.6,14.0,27.30,NNW,337,0.0,0.0,36,0.00,,,0.00,Rainwise IP-100,2013-03-25 11:27:00,
2013-03-25 04:32:00,36.3,11.0,27.29,NNW,337,0.0,0.0,35,0.00,,,0.00,Rainwise IP-100,2013-03-25 11:32:00,
2013-03-25 04:37:00,36.7,14.0,27.29,NNW,337,0.0,0.0,35,0.00,,,0.00,Rainwise IP-100,2013-03-25 11:37:00,
2013-03-25 04:42:00,36.5,14.0,27.30,NNW,337,0.0,0.0,35,0.00,,,0.00,Rainwise IP-100,2013-03-25 11:42:00,
2013-03-25 04:47:00,36.1,11.0,27.30,NNW,337,0.0,0.0,35,0.00,,,0.00,Rainwise IP-100,2013-03-25 11:47:00,
2013-03-25 04:52:00,35.6,14.0,27.29,NNW,337,0.0,0.0,36,0.00,,,0.00,Rainwise IP-100,2013-03-25 11:52:00,
2013-03-25 04:57:00,35.2,11.0,27.30,NNW,337,1.2,1.2,37,0.00,,,0.00,Rainwise IP-100,2013-03-25 11:57:00,
2013-03-25 05:02:00,35.2,11.0,27.30,NNW,337,0.0,1.4,37,0.00,,,0.00,Rainwise IP-100,2013-03-25 12:02:00,
2013-03-25 05:07:00,35.8,14.0,27.30,NNW,337,0.0,0.0,36,0.00,,,0.00,Rainwise IP-100,2013-03-25 12:07:00,
2013-03-25 05:12:00,36.3,14.0,27.30,NNW,337,0.0,2.1,36,0.00,,,0.00,Rainwise IP-100,2013-03-25 12:12:00,
2013-03-25 05:17:00,36.0,14.0,27.30,NNW,337,0.0,1.4,36,0.00,,,0.00,Rainwise IP-100,2013-03-25 12:17:00,
2013-03-25 05:22:00,35.6,14.0,27.30,NNW,337,0.0,1.2,36,0.00,,,0.00,Rainwise IP-100,2013-03-25 12:22:00,
2013-03-25 05:27:00,35.6,14.0,27.30,NNW,337,0.0,0.0,36,0.00,,,0.00,Rainwise IP-100,2013-03-25 12:27:00,
2013-03-25 05:32:00,35.9,14.0,27.30,NNW,337,0.0,1.9,36,0.00,,,0.00,Rainwise IP-100,2013-03-25 12:32:00,
2013-03-25 05:37:00,35.7,14.0,27.30,NNW,337,0.0,0.0,36,0.00,,,0.00,Rainwise IP-100,2013-03-25 12:37:00,
2013-03-25 05:42:00,35.2,11.0,27.30,NNW,337,0.0,0.0,36,0.00,,,0.00,Rainwise IP-100,2013-03-25 12:42:00,
2013-03-25 05:47:00,34.9,11.0,27.31,NNW,337,0.0,0.0,37,0.00,,,0.00,Rainwise IP-100,2013-03-25 12:47:00,
2013-03-25 05:52:00,34.7,11.0,27.31,NNW,337,0.0,1.6,37,0.00,,,0.00,Rainwise IP-100,2013-03-25 12:52:00,
2013-03-25 05:57:00,34.7,14.0,27.31,NNW,337,0.0,1.6,38,0.00,,,0.00,Rainwise IP-100,2013-03-25 12:57:00,
2013-03-25 06:02:00,34.6,14.0,27.31,NNW,337,0.0,0.0,38,0.00,,,0.00,Rainwise IP-100,2013-03-25 13:02:00,
2013-03-25 06:07:00,34.6,14.0,27.31,NNW,337,0.0,0.0,38,0.00,,,0.00,Rainwise IP-100,2013-03-25 13:07:00,
2013-03-25 06:12:00,34.8,14.0,27.31,NNW,337,0.0,0.0,39,0.00,,,0.00,Rainwise IP-100,2013-03-25 13:12:00,
2013-03-25 06:17:00,35.1,14.0,27.31,NNW,337,0.0,0.0,38,0.00,,,0.00,Rainwise IP-100,2013-03-25 13:17:00,
2013-03-25 06:22:00,35.3,14.0,27.31,NNW,337,0.0,0.0,38,0.00,,,0.00,Rainwise IP-100,2013-03-25 13:22:00,
2013-03-25 06:27:00,35.2,14.0,27.31,NNW,337,0.0,0.0,38,0.00,,,0.00,Rainwise IP-100,2013-03-25 13:27:00,
2013-03-25 06:32:00,35.2,14.0,27.32,NNW,337,0.0,0.0,38,0.00,,,0.00,Rainwise IP-100,2013-03-25 13:32:00,
2013-03-25 06:37:00,35.0,14.0,27.31,NNW,337,0.0,0.0,38,0.00,,,0.00,Rainwise IP-100,2013-03-25 13:37:00,
2013-03-25 06:42:00,34.8,14.0,27.32,NNW,337,0.0,1.4,38,0.00,,,0.00,Rainwise IP-100,2013-03-25 13:42:00,
2013-03-25 06:47:00,35.4,14.0,27.32,NNW,337,0.0,0.0,39,0.00,,,0.00,Rainwise IP-100,2013-03-25 13:47:00,
2013-03-25 06:52:00,36.4,14.0,27.32,ESE,112,0.0,2.6,39,0.00,,,0.00,Rainwise IP-100,2013-03-25 13:52:00,
2013-03-25 06:57:00,37.2,14.0,27.32,ESE,112,0.0,0.0,38,0.00,,,0.00,Rainwise IP-100,2013-03-25 13:57:00,
2013-03-25 07:02:00,37.9,16.0,27.32,ESE,112,0.0,1.9,38,0.00,,,0.00,Rainwise IP-100,2013-03-25 14:02:00,
2013-03-25 07:07:00,39.1,16.0,27.33,ESE,112,0.0,1.6,37,0.00,,,0.00,Rainwise IP-100,2013-03-25 14:07:00,
2013-03-25 07:12:00,40.6,16.0,27.33,North,360,2.3,2.8,36,0.00,,,0.00,Rainwise IP-100,2013-03-25 14:12:00,
2013-03-25 07:17:00,44.8,18.0,27.33,North,360,3.0,5.1,32,0.00,,,0.00,Rainwise IP-100,2013-03-25 14:17:00,
2013-03-25 07:22:00,51.3,18.0,27.33,NNW,337,5.1,5.1,26,0.00,,,0.00,Rainwise IP-100,2013-03-25 14:22:00,
2013-03-25 07:27:00,55.4,16.0,27.33,NNE,22,0.0,5.1,21,0.00,,,0.00,Rainwise IP-100,2013-03-25 14:27:00,
2013-03-25 07:33:00,55.8,16.0,27.33,SSE,157,0.0,4.0,20,0.00,,,0.00,Rainwise IP-100,2013-03-25 14:33:00,
2013-03-25 07:38:00,54.6,16.0,27.34,South,180,1.9,3.0,20,0.00,,,0.00,Rainwise IP-100,2013-03-25 14:38:00,
2013-03-25 07:43:00,54.2,16.0,27.34,South,180,3.0,3.0,21,0.00,,,0.00,Rainwise IP-100,2013-03-25 14:43:00,
2013-03-25 07:48:00,54.4,16.0,27.34,South,180,0.0,3.0,21,0.00,,,0.00,Rainwise IP-100,2013-03-25 14:48:00,
2013-03-25 07:53:00,55.1,16.0,27.34,South,180,0.0,1.2,21,0.00,,,0.00,Rainwise IP-100,2013-03-25 14:53:00,
2013-03-25 07:58:00,56.0,16.0,27.34,SSW,202,0.0,1.2,20,0.00,,,0.00,Rainwise IP-100,2013-03-25 14:58:00,
2013-03-25 08:03:00,56.8,16.0,27.35,WSW,247,2.1,2.8,19,0.00,,,0.00,Rainwise IP-100,2013-03-25 15:03:00,
2013-03-25 08:08:00,57.6,16.0,27.35,West,270,1.9,2.8,18,0.00,,,0.00,Rainwise IP-100,2013-03-25 15:08:00,
2013-03-25 08:13:00,58.6,16.0,27.34,West,270,1.2,2.6,17,0.00,,,0.00,Rainwise IP-100,2013-03-25 15:13:00,
2013-03-25 08:18:00,59.5,16.0,27.35,West,270,2.1,3.3,17,0.00,,,0.00,Rainwise IP-100,2013-03-25 15:18:00,
2013-03-25 08:23:00,60.5,16.0,27.35,West,270,1.9,3.0,17,0.00,,,0.00,Rainwise IP-100,2013-03-25 15:23:00,
2013-03-25 08:28:00,61.5,16.0,27.34,West,270,0.0,3.0,17,0.00,,,0.00,Rainwise IP-100,2013-03-25 15:28:00,
2013-03-25 08:33:00,62.0,18.0,27.35,WNW,292,1.2,5.4,17,0.00,,,0.00,Rainwise IP-100,2013-03-25 15:33:00,
2013-03-25 08:38:00,62.1,18.0,27.34,WSW,247,1.9,4.2,17,0.00,,,0.00,Rainwise IP-100,2013-03-25 15:38:00,
2013-03-25 08:43:00,62.3,16.0,27.34,WSW,247,4.0,4.0,16,0.00,,,0.00,Rainwise IP-100,2013-03-25 15:43:00,
2013-03-25 08:48:00,62.7,16.0,27.35,WNW,292,2.1,5.4,16,0.00,,,0.00,Rainwise IP-100,2013-03-25 15:48:00,
2013-03-25 08:53:00,63.1,16.0,27.34,West,270,0.0,6.8,16,0.00,,,0.00,Rainwise IP-100,2013-03-25 15:53:00,
2013-03-25 08:58:00,63.5,16.0,27.34,NNW,337,2.1,5.1,15,0.00,,,0.00,Rainwise IP-100,2013-03-25 15:58:00,
2013-03-25 09:03:00,64.1,16.0,27.34,WNW,292,0.0,4.2,15,0.00,,,0.00,Rainwise IP-100,2013-03-25 16:03:00,
2013-03-25 09:08:00,64.5,16.0,27.34,WSW,247,2.8,4.7,14,0.00,,,0.00,Rainwise IP-100,2013-03-25 16:08:00,
2013-03-25 09:13:00,64.8,16.0,27.34,WNW,292,3.0,5.1,14,0.00,,,0.00,Rainwise IP-100,2013-03-25 16:13:00,
2013-03-25 09:18:00,65.3,16.0,27.34,West,270,2.6,4.7,14,0.00,,,0.00,Rainwise IP-100,2013-03-25 16:18:00,
2013-03-25 09:23:00,65.9,14.0,27.34,WNW,292,0.0,4.4,13,0.00,,,0.00,Rainwise IP-100,2013-03-25 16:23:00,
2013-03-25 09:28:00,66.7,16.0,27.34,NW,315,2.6,4.9,13,0.00,,,0.00,Rainwise IP-100,2013-03-25 16:28:00,
2013-03-25 09:33:00,67.5,14.0,27.34,WSW,247,2.1,6.8,12,0.00,,,0.00,Rainwise IP-100,2013-03-25 16:33:00,
2013-03-25 09:38:00,68.0,14.0,27.34,WSW,247,2.1,4.9,12,0.00,,,0.00,Rainwise IP-100,2013-03-25 16:38:00,
2013-03-25 09:43:00,68.6,14.0,27.34,WSW,247,1.2,5.8,12,0.00,,,0.00,Rainwise IP-100,2013-03-25 16:43:00,
2013-03-25 09:48:00,69.4,16.0,27.34,WSW,247,2.3,6.8,12,0.00,,,0.00,Rainwise IP-100,2013-03-25 16:48:00,
2013-03-25 09:53:00,69.8,14.0,27.34,WSW,247,2.8,5.4,11,0.00,,,0.00,Rainwise IP-100,2013-03-25 16:53:00,
2013-03-25 09:58:00,70.0,14.0,27.34,WSW,247,4.0,6.5,11,0.00,,,0.00,Rainwise IP-100,2013-03-25 16:58:00,
2013-03-25 10:03:00,69.9,14.0,27.34,SW,225,3.3,6.5,11,0.00,,,0.00,Rainwise IP-100,2013-03-25 17:03:00,
2013-03-25 10:44:00,73.0,11.0,27.33,SW,225,3.0,4.9,9,0.00,,,0.00,Rainwise IP-100,2013-03-25 17:44:00,
2013-03-25 10:49:00,73.7,14.0,27.33,SSW,202,3.7,4.9,9,0.00,,,0.00,Rainwise IP-100,2013-03-25 17:49:00,
2013-03-25 10:54:00,74.3,14.0,27.33,SSE,157,4.4,6.5,9,0.00,,,0.00,Rainwise IP-100,2013-03-25 17:54:00,
2013-03-25 10:59:00,73.6,14.0,27.33,SSW,202,3.0,4.9,9,0.00,,,0.00,Rainwise IP-100,2013-03-25 17:59:00,
2013-03-25 11:04:00,73.6,14.0,27.33,SW,225,2.6,4.0,9,0.00,,,0.00,Rainwise IP-100,2013-03-25 18:04:00,
2013-03-25 11:09:00,74.5,14.0,27.32,WSW,247,1.4,4.2,9,0.00,,,0.00,Rainwise IP-100,2013-03-25 18:09:00,
2013-03-25 11:14:00,74.6,14.0,27.32,WSW,247,3.0,5.8,9,0.00,,,0.00,Rainwise IP-100,2013-03-25 18:14:00,
2013-03-25 11:19:00,74.3,14.0,27.32,West,270,3.3,7.2,9,0.00,,,0.00,Rainwise IP-100,2013-03-25 18:19:00,
2013-03-25 11:24:00,74.1,14.0,27.32,WSW,247,3.3,6.5,9,0.00,,,0.00,Rainwise IP-100,2013-03-25 18:24:00,
2013-03-25 11:29:00,74.5,14.0,27.32,West,270,1.4,5.6,9,0.00,,,0.00,Rainwise IP-100,2013-03-25 18:29:00,
2013-03-25 11:34:00,74.8,14.0,27.32,WSW,247,4.0,6.5,9,0.00,,,0.00,Rainwise IP-100,2013-03-25 18:34:00,
2013-03-25 11:39:00,75.0,14.0,27.32,WSW,247,2.3,8.6,9,0.00,,,0.00,Rainwise IP-100,2013-03-25 18:39:00,
2013-03-25 11:44:00,75.8,11.0,27.31,NNW,337,4.9,5.4,8,0.00,,,0.00,Rainwise IP-100,2013-03-25 18:44:00,
2013-03-25 11:49:00,76.7,11.0,27.31,WSW,247,4.0,6.8,8,0.00,,,0.00,Rainwise IP-100,2013-03-25 18:49:00,
2013-03-25 11:54:00,77.2,14.0,27.30,WSW,247,2.6,5.6,8,0.00,,,0.00,Rainwise IP-100,2013-03-25 18:54:00,
2013-03-25 11:59:00,76.9,14.0,27.31,SSW,202,0.0,7.9,8,0.00,,,0.00,Rainwise IP-100,2013-03-25 18:59:00,
2013-03-25 12:04:00,76.0,11.0,27.30,WNW,292,3.5,5.8,8,0.00,,,0.00,Rainwise IP-100,2013-03-25 19:04:00,
2013-03-25 12:09:00,75.8,11.0,27.30,SW,225,2.8,7.0,8,0.00,,,0.00,Rainwise IP-100,2013-03-25 19:09:00,
2013-03-25 12:14:00,76.6,11.0,27.29,WSW,247,1.9,7.9,8,0.00,,,0.00,Rainwise IP-100,2013-03-25 19:14:00,
2013-03-25 12:19:00,77.3,14.0,27.29,NW,315,1.6,6.1,8,0.00,,,0.00,Rainwise IP-100,2013-03-25 19:19:00,
2013-03-25 12:24:00,77.3,14.0,27.29,WNW,292,3.3,8.9,8,0.00,,,0.00,Rainwise IP-100,2013-03-25 19:24:00,
2013-03-25 12:29:00,76.9,14.0,27.29,West,270,5.1,8.6,8,0.00,,,0.00,Rainwise IP-100,2013-03-25 19:29:00,
2013-03-25 12:34:00,76.4,11.0,27.29,SW,225,3.3,7.5,8,0.00,,,0.00,Rainwise IP-100,2013-03-25 19:34:00,
2013-03-25 12:39:00,76.8,11.0,27.29,WSW,247,1.2,7.0,8,0.00,,,0.00,Rainwise IP-100,2013-03-25 19:39:00,
2013-03-25 12:44:00,77.6,14.0,27.29,WNW,292,4.9,7.9,8,0.00,,,0.00,Rainwise IP-100,2013-03-25 19:44:00,
2013-03-25 12:49:00,77.5,14.0,27.28,ESE,112,0.0,7.2,8,0.00,,,0.00,Rainwise IP-100,2013-03-25 19:49:00,
2013-03-25 12:54:00,77.5,14.0,27.28,West,270,3.7,6.1,8,0.00,,,0.00,Rainwise IP-100,2013-03-25 19:54:00,
2013-03-25 12:59:00,78.0,14.0,27.28,WSW,247,2.6,7.5,8,0.00,,,0.00,Rainwise IP-100,2013-03-25 19:59:00,
2013-03-25 13:04:00,78.5,11.0,27.28,WSW,247,4.0,6.1,7,0.00,,,0.00,Rainwise IP-100,2013-03-25 20:04:00,
2013-03-25 13:09:00,79.0,11.0,27.28,WSW,247,2.1,6.8,7,0.00,,,0.00,Rainwise IP-100,2013-03-25 20:09:00,
2013-03-25 13:14:00,79.1,11.0,27.28,WSW,247,3.3,6.1,7,0.00,,,0.00,Rainwise IP-100,2013-03-25 20:14:00,
2013-03-25 13:19:00,79.4,11.0,27.27,SSW,202,2.8,9.1,7,0.00,,,0.00,Rainwise IP-100,2013-03-25 20:19:00,
2013-03-25 13:24:00,78.3,11.0,27.28,ENE,67,2.8,9.1,7,0.00,,,0.00,Rainwise IP-100,2013-03-25 20:24:00,
2013-03-25 13:29:00,77.5,11.0,27.27,NNW,337,2.8,4.9,7,0.00,,,0.00,Rainwise IP-100,2013-03-25 20:29:00,
2013-03-25 13:34:00,77.9,14.0,27.27,WSW,247,2.6,10.0,8,0.00,,,0.00,Rainwise IP-100,2013-03-25 20:34:00,
2013-03-25 13:39:00,77.9,14.0,27.27,WNW,292,4.2,6.8,8,0.00,,,0.00,Rainwise IP-100,2013-03-25 20:39:00,
2013-03-25 13:44:00,78.3,14.0,27.27,WSW,247,3.5,8.4,8,0.00,,,0.00,Rainwise IP-100,2013-03-25 20:44:00,
2013-03-25 13:49:00,79.0,11.0,27.26,SSE,157,5.6,5.6,7,0.00,,,0.00,Rainwise IP-100,2013-03-25 20:49:00,
2013-03-25 13:54:00,79.1,11.0,27.26,WSW,247,1.4,9.3,7,0.00,,,0.00,Rainwise IP-100,2013-03-25 20:54:00,
2013-03-25 13:59:00,79.0,11.0,27.26,WSW,247,2.6,18.2,7,0.00,,,0.00,Rainwise IP-100,2013-03-25 20:59:00,
2013-03-25 14:04:00,79.1,11.0,27.26,WNW,292,6.3,10.7,7,0.00,,,0.00,Rainwise IP-100,2013-03-25 21:04:00,
2013-03-25 14:09:00,79.0,11.0,27.26,East,90,4.2,8.2,7,0.00,,,0.00,Rainwise IP-100,2013-03-25 21:09:00,
2013-03-25 14:14:00,79.4,11.0,27.26,WSW,247,1.6,8.6,7,0.00,,,0.00,Rainwise IP-100,2013-03-25 21:14:00,
2013-03-25 14:19:00,79.8,11.0,27.26,NNW,337,7.7,8.2,7,0.00,,,0.00,Rainwise IP-100,2013-03-25 21:19:00,
2013-03-25 14:24:00,79.4,11.0,27.25,West,270,5.6,10.5,7,0.00,,,0.00,Rainwise IP-100,2013-03-25 21:24:00,
2013-03-25 14:29:00,78.9,11.0,27.25,WNW,292,7.7,10.5,7,0.00,,,0.00,Rainwise IP-100,2013-03-25 21:29:00,
2013-03-25 14:35:00,78.6,11.0,27.25,WNW,292,4.7,8.4,7,0.00,,,0.00,Rainwise IP-100,2013-03-25 21:35:00,
2013-03-25 14:40:00,78.7,11.0,27.25,WNW,292,0.0,9.3,7,0.00,,,0.00,Rainwise IP-100,2013-03-25 21:40:00,
2013-03-25 14:45:00,79.2,11.0,27.25,WSW,247,6.5,8.2,7,0.00,,,0.00,Rainwise IP-100,2013-03-25 21:45:00,
2013-03-25 14:50:00,79.5,11.0,27.25,WSW,247,3.3,11.9,7,0.00,,,0.00,Rainwise IP-100,2013-03-25 21:50:00,
2013-03-25 14:55:00,79.7,11.0,27.25,NW,315,7.9,8.2,7,0.00,,,0.00,Rainwise IP-100,2013-03-25 21:55:00,
2013-03-25 15:00:00,79.4,14.0,27.24,WSW,247,3.3,9.1,8,0.00,,,0.00,Rainwise IP-100,2013-03-25 22:00:00,
2013-03-25 15:05:00,79.3,11.0,27.25,SW,225,1.9,7.7,7,0.00,,,0.00,Rainwise IP-100,2013-03-25 22:05:00,
2013-03-25 15:10:00,79.8,11.0,27.24,WSW,247,6.5,7.9,7,0.00,,,0.00,Rainwise IP-100,2013-03-25 22:10:00,
2013-03-25 15:15:00,80.1,14.0,27.24,WSW,247,6.1,8.2,8,0.00,,,0.00,Rainwise IP-100,2013-03-25 22:15:00,
2013-03-25 15:20:00,80.2,14.0,27.24,West,270,1.6,10.0,8,0.00,,,0.00,Rainwise IP-100,2013-03-25 22:20:00,
2013-03-25 15:25:00,80.1,14.0,27.24,WSW,247,4.0,8.9,8,0.00,,,0.00,Rainwise IP-100,2013-03-25 22:25:00,
2013-03-25 15:30:00,80.7,11.0,27.24,WSW,247,3.0,7.9,7,0.00,,,0.00,Rainwise IP-100,2013-03-25 22:30:00,
2013-03-25 15:35:00,80.7,11.0,27.24,West,270,6.8,8.4,7,0.00,,,0.00,Rainwise IP-100,2013-03-25 22:35:00,
2013-03-25 15:40:00,79.8,14.0,27.24,West,270,2.6,7.7,8,0.00,,,0.00,Rainwise IP-100,2013-03-25 22:40:00,
2013-03-25 15:45:00,79.6,14.0,27.24,WNW,292,2.8,9.6,8,0.00,,,0.00,Rainwise IP-100,2013-03-25 22:45:00,
2013-03-25 15:50:00,79.6,14.0,27.24,WNW,292,4.2,8.6,8,0.00,,,0.00,Rainwise IP-100,2013-03-25 22:50:00,
2013-03-25 15:55:00,79.2,14.0,27.23,WSW,247,3.5,9.6,8,0.00,,,0.00,Rainwise IP-100,2013-03-25 22:55:00,
2013-03-25 16:00:00,79.2,14.0,27.24,WNW,292,2.8,9.3,8,0.00,,,0.00,Rainwise IP-100,2013-03-25 23:00:00,
2013-03-25 16:05:00,79.5,14.0,27.24,WSW,247,2.1,7.0,8,0.00,,,0.00,Rainwise IP-100,2013-03-25 23:05:00,
2013-03-25 16:10:00,79.9,14.0,27.23,SW,225,0.0,5.8,8,0.00,,,0.00,Rainwise IP-100,2013-03-25 23:10:00,
2013-03-25 16:15:00,80.4,14.0,27.23,SW,225,2.3,9.1,8,0.00,,,0.00,Rainwise IP-100,2013-03-25 23:15:00,
2013-03-25 16:20:00,80.3,14.0,27.23,SW,225,4.0,6.3,8,0.00,,,0.00,Rainwise IP-100,2013-03-25 23:20:00,
2013-03-25 16:25:00,80.0,14.0,27.24,WSW,247,4.4,6.1,8,0.00,,,0.00,Rainwise IP-100,2013-03-25 23:25:00,
2013-03-25 16:30:00,80.1,14.0,27.23,WNW,292,2.3,7.0,8,0.00,,,0.00,Rainwise IP-100,2013-03-25 23:30:00,
2013-03-25 16:35:00,79.8,14.0,27.23,SW,225,3.0,12.8,8,0.00,,,0.00,Rainwise IP-100,2013-03-25 23:35:00,
2013-03-25 16:40:00,79.8,14.0,27.24,SW,225,3.5,8.6,8,0.00,,,0.00,Rainwise IP-100,2013-03-25 23:40:00,
2013-03-25 16:45:00,80.6,14.0,27.24,SSW,202,1.2,8.2,8,0.00,,,0.00,Rainwise IP-100,2013-03-25 23:45:00,
2013-03-25 16:50:00,80.9,11.0,27.23,SSW,202,4.7,5.8,7,0.00,,,0.00,Rainwise IP-100,2013-03-25 23:50:00,
2013-03-25 16:55:00,80.9,11.0,27.23,SSW,202,2.8,8.6,7,0.00,,,0.00,Rainwise IP-100,2013-03-25 23:55:00,
2013-03-25 17:00:00,80.5,14.0,27.24,SW,225,6.3,7.2,8,0.00,,,0.00,Rainwise IP-100,2013-03-26 00:00:00,
2013-03-25 17:05:00,80.0,14.0,27.24,SSW,202,4.0,8.4,8,0.00,,,0.00,Rainwise IP-100,2013-03-26 00:05:00,
2013-03-25 17:10:00,79.7,14.0,27.24,WSW,247,4.2,8.2,8,0.00,,,0.00,Rainwise IP-100,2013-03-26 00:10:00,
2013-03-25 17:15:00,79.6,14.0,27.23,SSW,202,4.4,7.9,8,0.00,,,0.00,Rainwise IP-100,2013-03-26 00:15:00,
2013-03-25 17:20:00,79.3,14.0,27.23,SW,225,3.0,7.0,8,0.00,,,0.00,Rainwise IP-100,2013-03-26 00:20:00,
2013-03-25 17:25:00,78.7,14.0,27.24,SSE,157,2.8,7.0,8,0.00,,,0.00,Rainwise IP-100,2013-03-26 00:25:00,
2013-03-25 17:30:00,78.5,14.0,27.23,WNW,292,9.6,9.6,8,0.00,,,0.00,Rainwise IP-100,2013-03-26 00:30:00,
2013-03-25 17:35:00,78.0,14.0,27.24,South,180,4.0,9.6,8,0.00,,,0.00,Rainwise IP-100,2013-03-26 00:35:00,
2013-03-25 17:40:00,77.9,14.0,27.24,SW,225,4.7,7.5,8,0.00,,,0.00,Rainwise IP-100,2013-03-26 00:40:00,
2013-03-25 17:45:00,77.7,14.0,27.24,WNW,292,1.6,7.7,8,0.00,,,0.00,Rainwise IP-100,2013-03-26 00:45:00,
2013-03-25 17:50:00,77.1,14.0,27.23,WSW,247,3.7,7.0,8,0.00,,,0.00,Rainwise IP-100,2013-03-26 00:50:00,
2013-03-25 17:55:00,76.7,14.0,27.24,WSW,247,3.5,6.1,9,0.00,,,0.00,Rainwise IP-100,2013-03-26 00:55:00,
2013-03-25 18:00:00,76.4,14.0,27.24,WSW,247,1.9,7.0,9,0.00,,,0.00,Rainwise IP-100,2013-03-26 01:00:00,
2013-03-25 18:05:00,76.0,14.0,27.24,WSW,247,1.2,5.6,9,0.00,,,0.00,Rainwise IP-100,2013-03-26 01:05:00,
2013-03-25 18:10:00,75.6,14.0,27.24,WNW,292,2.8,6.8,9,0.00,,,0.00,Rainwise IP-100,2013-03-26 01:10:00,
2013-03-25 18:15:00,75.0,14.0,27.25,WSW,247,3.0,7.0,9,0.00,,,0.00,Rainwise IP-100,2013-03-26 01:15:00,
2013-03-25 18:20:00,74.5,14.0,27.25,West,270,1.6,7.0,9,0.00,,,0.00,Rainwise IP-100,2013-03-26 01:20:00,
2013-03-25 18:25:00,74.1,14.0,27.25,SW,225,2.6,5.4,9,0.00,,,0.00,Rainwise IP-100,2013-03-26 01:25:00,
2013-03-25 18:30:00,73.6,14.0,27.26,WSW,247,1.9,9.3,10,0.00,,,0.00,Rainwise IP-100,2013-03-26 01:30:00,
2013-03-25 18:35:00,73.1,14.0,27.26,WSW,247,2.1,4.2,10,0.00,,,0.00,Rainwise IP-100,2013-03-26 01:35:00,
2013-03-25 18:40:00,72.6,14.0,27.25,WSW,247,2.6,4.9,10,0.00,,,0.00,Rainwise IP-100,2013-03-26 01:40:00,
2013-03-25 18:45:00,72.1,14.0,27.25,WSW,247,1.2,5.6,10,0.00,,,0.00,Rainwise IP-100,2013-03-26 01:45:00,
2013-03-25 18:50:00,71.8,14.0,27.26,SW,225,3.7,6.5,10,0.00,,,0.00,Rainwise IP-100,2013-03-26 01:50:00,
2013-03-25 18:55:00,71.6,16.0,27.26,West,270,3.7,5.8,11,0.00,,,0.00,Rainwise IP-100,2013-03-26 01:55:00,
2013-03-25 19:01:00,71.3,14.0,27.26,WSW,247,2.6,5.6,11,0.00,,,0.00,Rainwise IP-100,2013-03-26 02:01:00,
2013-03-25 19:06:00,71.0,14.0,27.26,WSW,247,2.8,6.1,11,0.00,,,0.00,Rainwise IP-100,2013-03-26 02:06:00,
2013-03-25 19:11:00,70.7,14.0,27.26,WSW,247,1.6,7.5,11,0.00,,,0.00,Rainwise IP-100,2013-03-26 02:11:00,
2013-03-25 19:16:00,70.5,14.0,27.26,WSW,247,2.1,4.7,11,0.00,,,0.00,Rainwise IP-100,2013-03-26 02:16:00,
2013-03-25 19:21:00,70.1,14.0,27.26,West,270,0.0,3.0,11,0.00,,,0.00,Rainwise IP-100,2013-03-26 02:21:00,
2013-03-25 19:26:00,69.6,16.0,27.27,West,270,0.0,1.9,12,0.00,,,0.00,Rainwise IP-100,2013-03-26 02:26:00,
2013-03-25 19:31:00,68.7,14.0,27.27,West,270,0.0,0.0,12,0.00,,,0.00,Rainwise IP-100,2013-03-26 02:31:00,
2013-03-25 19:36:00,67.7,14.0,27.27,West,270,0.0,0.0,12,0.00,,,0.00,Rainwise IP-100,2013-03-26 02:36:00,
2013-03-25 19:41:00,66.8,16.0,27.28,West,270,0.0,0.0,13,0.00,,,0.00,Rainwise IP-100,2013-03-26 02:41:00,
2013-03-25 19:46:00,65.8,14.0,27.27,West,270,0.0,1.4,13,0.00,,,0.00,Rainwise IP-100,2013-03-26 02:46:00,
2013-03-25 19:51:00,65.0,14.0,27.28,West,270,0.0,0.0,13,0.00,,,0.00,Rainwise IP-100,2013-03-26 02:51:00,
2013-03-25 19:56:00,64.4,16.0,27.28,West,270,0.0,0.0,14,0.00,,,0.00,Rainwise IP-100,2013-03-26 02:56:00,
2013-03-25 20:01:00,63.4,14.0,27.28,West,270,0.0,0.0,14,0.00,,,0.00,Rainwise IP-100,2013-03-26 03:01:00,
2013-03-25 20:06:00,62.4,16.0,27.28,West,270,0.0,1.4,15,0.00,,,0.00,Rainwise IP-100,2013-03-26 03:06:00,
2013-03-25 20:11:00,62.1,14.0,27.28,SSE,157,0.0,2.3,15,0.00,,,0.00,Rainwise IP-100,2013-03-26 03:11:00,
2013-03-25 20:16:00,62.2,16.0,27.28,SSE,157,1.2,1.6,16,0.00,,,0.00,Rainwise IP-100,2013-03-26 03:16:00,
2013-03-25 20:21:00,62.2,16.0,27.29,SSE,157,0.0,1.4,16,0.00,,,0.00,Rainwise IP-100,2013-03-26 03:21:00,
2013-03-25 20:26:00,61.6,16.0,27.29,ESE,112,0.0,2.3,16,0.00,,,0.00,Rainwise IP-100,2013-03-26 03:26:00,
2013-03-25 20:31:00,61.0,16.0,27.30,ESE,112,0.0,1.6,16,0.00,,,0.00,Rainwise IP-100,2013-03-26 03:31:00,
2013-03-25 20:36:00,60.3,14.0,27.30,ESE,112,0.0,0.0,16,0.00,,,0.00,Rainwise IP-100,2013-03-26 03:36:00,
2013-03-25 20:41:00,59.5,16.0,27.30,ESE,112,0.0,0.0,17,0.00,,,0.00,Rainwise IP-100,2013-03-26 03:41:00,
2013-03-25 20:46:00,58.7,16.0,27.29,ESE,112,0.0,0.0,17,0.00,,,0.00,Rainwise IP-100,2013-03-26 03:46:00,
2013-03-25 20:51:00,57.9,16.0,27.30,NNE,22,0.0,2.1,18,0.00,,,0.00,Rainwise IP-100,2013-03-26 03:51:00,
2013-03-25 20:56:00,57.0,14.0,27.31,NNE,22,0.0,1.4,18,0.00,,,0.00,Rainwise IP-100,2013-03-26 03:56:00,
2013-03-25 21:00:00,56.3,16.0,27.31,NNE,22,0.0,1.4,19,0.00,,,0.00,Rainwise IP-100,2013-03-26 04:00:00,
2013-03-25 21:05:00,55.6,16.0,27.30,NNE,22,0.0,0.0,19,0.00,,,0.00,Rainwise IP-100,2013-03-26 04:05:00,
2013-03-25 21:10:00,55.0,16.0,27.31,NNE,22,0.0,0.0,20,0.00,,,0.00,Rainwise IP-100,2013-03-26 04:10:00,
2013-03-25 21:15:00,54.7,16.0,27.31,NNE,22,0.0,0.0,20,0.00,,,0.00,Rainwise IP-100,2013-03-26 04:15:00,
2013-03-25 21:20:00,54.4,16.0,27.31,NNE,22,0.0,0.0,20,0.00,,,0.00,Rainwise IP-100,2013-03-26 04:20:00,
2013-03-25 21:25:00,54.3,16.0,27.31,NNE,22,0.0,1.9,21,0.00,,,0.00,Rainwise IP-100,2013-03-26 04:25:00,
2013-03-25 21:26:00,54.3,16.0,27.31,NNE,22,0.0,1.9,21,0.00,,,0.00,Rainwise IP-100,2013-03-26 04:26:00,
2013-03-25 21:31:00,54.7,16.0,27.31,NNE,22,0.0,0.0,21,0.00,,,0.00,Rainwise IP-100,2013-03-26 04:31:00,
2013-03-25 21:36:00,55.2,16.0,27.31,NNE,22,0.0,0.0,21,0.00,,,0.00,Rainwise IP-100,2013-03-26 04:36:00,
2013-03-25 21:41:00,55.3,16.0,27.31,SSE,157,3.7,3.7,21,0.00,,,0.00,Rainwise IP-100,2013-03-26 04:41:00,
2013-03-25 21:46:00,54.9,16.0,27.32,SSE,157,0.0,4.0,21,0.00,,,0.00,Rainwise IP-100,2013-03-26 04:46:00,
2013-03-25 21:51:00,54.5,16.0,27.32,SSE,157,0.0,1.2,21,0.00,,,0.00,Rainwise IP-100,2013-03-26 04:51:00,
2013-03-25 21:56:00,54.4,16.0,27.32,SSE,157,0.0,0.0,21,0.00,,,0.00,Rainwise IP-100,2013-03-26 04:56:00,
2013-03-25 22:01:00,53.9,16.0,27.32,SSE,157,0.0,0.0,22,0.00,,,0.00,Rainwise IP-100,2013-03-26 05:01:00,
2013-03-25 22:06:00,53.2,16.0,27.32,SSE,157,0.0,0.0,22,0.00,,,0.00,Rainwise IP-100,2013-03-26 05:06:00,
2013-03-25 22:11:00,52.5,16.0,27.33,SSE,157,0.0,1.2,23,0.00,,,0.00,Rainwise IP-100,2013-03-26 05:11:00,
2013-03-25 22:16:00,52.0,16.0,27.33,SSE,157,0.0,0.0,23,0.00,,,0.00,Rainwise IP-100,2013-03-26 05:16:00,
2013-03-25 22:21:00,51.8,16.0,27.33,SSE,157,0.0,0.0,24,0.00,,,0.00,Rainwise IP-100,2013-03-26 05:21:00,
2013-03-25 22:26:00,51.7,16.0,27.33,SSE,157,0.0,0.0,24,0.00,,,0.00,Rainwise IP-100,2013-03-26 05:26:00,
2013-03-25 22:31:00,52.5,16.0,27.33,SSE,157,0.0,3.3,23,0.00,,,0.00,Rainwise IP-100,2013-03-26 05:31:00,
2013-03-25 22:36:00,53.5,16.0,27.32,SSE,157,0.0,0.0,23,0.00,,,0.00,Rainwise IP-100,2013-03-26 05:36:00,
2013-03-25 22:41:00,53.2,16.0,27.33,SSE,157,0.0,1.9,22,0.00,,,0.00,Rainwise IP-100,2013-03-26 05:41:00,
2013-03-25 22:46:00,52.6,16.0,27.32,SSE,157,0.0,0.0,22,0.00,,,0.00,Rainwise IP-100,2013-03-26 05:46:00,
2013-03-25 22:51:00,52.0,16.0,27.32,SE,135,0.0,2.8,23,0.00,,,0.00,Rainwise IP-100,2013-03-26 05:51:00,
2013-03-25 22:56:00,51.0,16.0,27.33,SE,135,0.0,0.0,24,0.00,,,0.00,Rainwise IP-100,2013-03-26 05:56:00,
2013-03-25 23:01:00,50.3,16.0,27.32,SE,135,0.0,1.6,25,0.00,,,0.00,Rainwise IP-100,2013-03-26 06:01:00,
2013-03-25 23:06:00,49.8,16.0,27.32,SE,135,0.0,0.0,25,0.00,,,0.00,Rainwise IP-100,2013-03-26 06:06:00,
2013-03-25 23:12:00,49.2,16.0,27.33,SE,135,0.0,0.0,25,0.00,,,0.00,Rainwise IP-100,2013-03-26 06:12:00,
2013-03-25 23:17:00,48.8,16.0,27.32,SE,135,0.0,0.0,26,0.00,,,0.00,Rainwise IP-100,2013-03-26 06:17:00,
2013-03-25 23:22:00,48.5,16.0,27.32,SE,135,0.0,0.0,27,0.00,,,0.00,Rainwise IP-100,2013-03-26 06:22:00,
2013-03-25 23:27:00,48.1,16.0,27.32,SE,135,0.0,0.0,27,0.00,,,0.00,Rainwise IP-100,2013-03-26 06:27:00,
2013-03-25 23:32:00,47.7,16.0,27.32,SE,135,0.0,0.0,27,0.00,,,0.00,Rainwise IP-100,2013-03-26 06:32:00,
2013-03-25 23:37:00,47.4,16.0,27.32,SE,135,0.0,0.0,27,0.00,,,0.00,Rainwise IP-100,2013-03-26 06:37:00,
2013-03-25 23:42:00,47.3,16.0,27.32,SSE,157,0.0,1.6,28,0.00,,,0.00,Rainwise IP-100,2013-03-26 06:42:00,
2013-03-25 23:47:00,48.7,16.0,27.32,ESE,112,3.3,3.3,27,0.00,,,0.00,Rainwise IP-100,2013-03-26 06:47:00,
2013-03-25 23:52:00,50.9,18.0,27.32,ESE,112,0.0,3.5,27,0.00,,,0.00,Rainwise IP-100,2013-03-26 06:52:00,
2013-03-25 23:57:00,51.6,18.0,27.32,ESE,112,0.0,1.6,26,0.00,,,0.00,Rainwise IP-100,2013-03-26 06:57:00,